Location: Pabrico
(37.5827°N, 122.0063°W)
Time: 10:07:51
(UTC+00:00)

SL-16 R/B - Pass Details

Date: 13 April 2024
Orbit: 985 x 1006 km, 99.7° (Epoch: 23 May)

Event Time Altitude Azimuth Distance (km) Brightness Sun altitude
Exits shadow 12:36:07 12° 273° (W) 2,593 4.2 -12.0°
Drops below altitude 10° 12:38:07 10° 293° (WNW) 2,758 4.4 -11.6°
Sets 12:42:31 0° 322° (NW) 3,718 5.4 -10.8°
